Location: Dampvalley
(47.9094°N, 6.1967°E)
Time: 21:05:20
(UTC+00:00)

Cosmos 1269 Rocket - Pass Details

Date: 05 March 2021
Orbit: 772 x 780 km, 74.1° (Epoch: 20 April)

Event Time Altitude Azimuth Distance (km) Brightness Sun altitude
Exits shadow 03:35:42 83° 253° (WSW) 787 3.8 -26.0°
Maximum altitude 03:35:51 84° 293° (WNW) 785 3.9 -26.0°
Drops below altitude 10° 03:41:10 10° 22° (NNE) 2,336 7.0 -25.1°
Sets 03:43:34 0° 23° (NNE) 3,269 7.9 -24.8°
